カタログに戻る

IUS R/B(1)

運用中GTO
NORAD 21806·ROCKET BODY·🇺🇸 United States

打ち上げ Nov 24, 1991 から Cape Canaveral Space Force Station

Loading…

TLE

古いSource: Space-Track

元期: Sep 14, 2026, 08:06 UTC

1 21806U 91080C   26257.33760175  .00000070  00000-0  79682-3 0  9991
2 21806  26.5125 172.0563 7114656 357.5345   0.3110  2.39038769 65201

AllMySatでIUS R/B(1)をリアルタイム追跡

Download on the App Store